AirNav   Air Wisconsin pilot careers
 
 525 users online  

ME6 Wales Airport
Wales, Maine, USA

GOING TO WALES?


FAA INFORMATION EFFECTIVE 21 JUNE 2018

Location

FAA Identifier: ME6
Lat/Long: 44-10-28.3000N / 070-01-08.2000W
44-10.471667N / 070-01.136667W
44.1745278 / -70.0189444
(estimated)
Elevation: 210 ft. / 64 m (estimated)
Variation: 17W (1995)
From city: 2 miles SSW of WALES, ME
Time zone: UTC -4 (UTC -5 during Standard Time)
Zip code: 04280

Airport Operations

Airport use: Open to the public
Activation date: 06/1999
Control tower: no
ARTCC: BOSTON CENTER
FSS: BANGOR FLIGHT SERVICE STATION
NOTAMs facility: BGR (NOTAM-D service available)
Attendance: UNATNDD
Wind indicator: yes
Segmented circle: no

Airport Communications

CTAF: 122.9
WX ASOS at AUG (13 nm NE): 118.325 (207-623-0432)
WX AWOS-3PT at LEW (14 nm SW): 118.025 (207-783-2806)
WX AWOS-AV at BXM (17 nm S): 134.875 (207-409-1747)
WX ASOS-A at IWI (18 nm SE): 135.725 (207-882-8094)
  • CLNC DLVY THRU FLIGHT SERVICES 1-800-WX-BRIEF.

Nearby radio navigation aids

VOR radial/distance  VOR name  Freq  Var
AUGr246/12.9AUGUSTA VOR/DME111.4018W

Airport Services

Runway Information

Runway 4/22

Dimensions: 2100 x 80 ft. / 640 x 24 m
Surface: turf, in good condition
SOFT IN SPRING; CALL PRIOR TO LNDG 207-754-1372.
Runway edge markings: HAS WHITE PLASTIC BARREL EDGE MARKERS .
HAS WHITE PLASTIC BARREL MARKERS ALONG SIDE OF RY WITH THLD MKD WITH SINGLE WHITE BARREL.
RUNWAY 4  RUNWAY 22
Traffic pattern: leftleft
Markings: NSTDNSTD
Obstructions: 15 ft. gnd, 20 ft. from runway, 70 ft. left and right of centerline40 ft. tree, 200 ft. from runway, 71 ft. left of centerline, 5:1 slope to clear

Airport Ownership and Management from official FAA records

Ownership: Privately-owned
Owner: THOMAS P. O'CONNELL
222 RIDGE ROAD
WALES, ME 04280
Phone (207) 754-1372
Manager: THOMAS P. CONNELL
222 RIDGE ROAD
WALES, ME 04259
Phone (207) 754-1372

Airport Operational Statistics

Aircraft operations: avg 25/month *
83% local general aviation
17% transient general aviation
* for 12-month period ending 10 August 2016

Additional Remarks

1,239 FT MSL TWR, 7,000 FT SE & 968 FT MSL TWR 9,600 FT SSE OF ARPT.
TWR 9,500 S.
ARPT CLSD NOV-MAY; EXCEPT FOR SKIING.
AIRCRAFT SHOULD MONITOR 122.8 IN VICINITY OF AIRPORT.

Instrument Procedures

There are no published instrument procedures at ME6.

Some nearby airports with instrument procedures:

KAUG - Augusta State Airport (13 nm NE)
KLEW - Auburn/Lewiston Municipal Airport (14 nm SW)
KBXM - Brunswick Executive Airport (17 nm S)
KIWI - Wiscasset Airport (18 nm SE)
81B - Oxford County Regional Airport (20 nm W)
 
Loc | Ops | Rwys | IFR | FBO | Links
Com | Nav | Svcs | Stats | Notes

Auburn-Lewiston Municipal Airport
 
Area around ME6 (Wales Airport)
 
Road maps at: MapQuest Bing Google
 
Aerial photo
WARNING: Photo may not be current or correct
Aerial photo of ME6 (Wales Airport)
Do you have a better or more recent aerial photo of Wales Airport that you would like to share? If so, please send us your photo.

 
Sectional chart

 
Airport distance calculator
Flying to Wales Airport? Find the distance to fly.

From to ME6

Sunrise and sunset
Times for 18-Jul-2018
 Local
(UTC-4)
 Zulu
(UTC)
Morning civil twilight04:3908:39
Sunrise05:1409:14
Sunset20:1800:18
Evening civil twilight20:5300:53

Current date and time
Zulu (UTC)  18-Jul-2018 05:39:49
Local (UTC-4)  18-Jul-2018 01:39:49
 
METAR
KAUG 
13nm NE 
180453Z AUTO 25004KT 10SM OVC080 19/18 A2975 RMK AO2 RAE17 SLP075 P0001 T01890183 402280178
KLEW 
14nm SW 
180456Z AUTO 21004KT 10SM OVC080 19/18 A2977 RMK AO2 SLP094 P0001 T01890183
KIWI 
18nm SE 
180453Z AUTO VRB03KT 5SM -RA BR OVC060 19/19 A2976 RMK AO2 RAB00E04B43 SLP077 P0002 T01940194 402500178
TAF
KAUG 
13nm NE 
172053Z 1721/1818 19005KT 4SM -SHRA BR OVC005 FM180300 VRB03KT 1/2SM FG OVC002 FM181200 33008KT P6SM SCT050
NOTAMs
Click for the latest NOTAMs
NOTAMs are issued by the DoD/FAA and will open in a separate window not controlled by AirNav.

 

 
 

Would you like to see your business listed on this page?

 If your business provides an interesting product or service to pilots, flight crews, aircraft, or users of the Wales Airport, you should consider listing it here.  To start the listing process, click on the button below
 
Add a business
 

Other Pages about Wales Airport

Update a link
 
Copyright © AirNav, LLC. All rights reserved. Privacy Policy  Contact